Back to catalog

CZ-4 DEB

AliveSSO
NORAD 20848·DEBRIS·🇨🇳 China

Launched Sep 3, 1990 from Taiyuan Satellite Launch Center

Loading…

Next Passes (next 24 hours)

TLE

FreshSource: Space-Track

Epoch: Sep 14, 2026, 07:59 UTC

1 20848U 90081L   26257.33321360  .00000580  00000-0  51239-3 0  9999
2 20848  99.0656  16.8352 0204556 265.8280 115.3403 13.80079760799167

Track CZ-4 DEB in real time with AllMySat

Download on the App Store